063  
ASUS43 KFSD 221410  
RWRFSD  
 
WEATHER ROUNDUP FOR SE SOUTH DAKOTA/SW MINNESOTA/NW IOWA  
NATIONAL WEATHER SERVICE SIOUX FALLS SD  
800 AM CST MON JAN 22 2018  
 
NOTE: "FAIR" INDICATES FEW OR NO CLOUDS BELOW 12,000 FEET WITH NO  
SIGNIFICANT WEATHER AND OR S TO VISIBILITY
.  
 
 
SDZ038>040-050-052>070-221500-  
SOUTHEAST SOUTH DAKOTA  
 
CITY SKY/WX TMP DP RH WIND PRES REMARKS
 
BROOKINGS FLURRIES 24 22 91 N21G31 29.78F WCI 9  
CHAMBERLAIN CLOUDY 24 24 98 NW17G24 29.91F WCI 11  
HURON CLOUDY 22 21 96 N22G31 29.90F FOG WCI 6  
MADISON LGT RAIN 23 23 100 N30G37 29.76F WCI 5  
MITCHELL CLOUDY 23 22 96 N29G38 29.84F BLWGSNOWWCI 6  
SIOUX FALLS LGT SNOW 26 25 96 N29G44 29.70R VSB 1 WCI 10  
WINNER LGT SNOW 25 23 92 N14G23 29.93R FOG WCI 13  
YANKTON SNOW 26 24 92 NW26G38 29.71S VSB 1/2 WCI 10  

 
 
MNZ071-072-080-081-089-090-097-098-221500-  
SOUTHWEST MINNESOTA  
 
CITY SKY/WX TMP DP RH WIND PRES REMARKS
 
FAIRMONT LGT SNOW 32 31 96 N25G36 29.59F VSB 3/4 WCI 19  
JACKSON CLOUDY 30 30 100 N35G43 29.61F VSB 1/2 WCI 14  
LUVERNE CLOUDY 27 23 86 N25G32 29.65F WCI 11  
MARSHALL CLOUDY 26 25 96 N20 29.80F FOG WCI 12  
MONTEVIDEO CLOUDY 28 28 100 NE17 29.84F WCI 16  
PIPESTONE CLOUDY 25 21 86 NE25G32 29.70F WCI 9  
REDWOOD FALLS CLOUDY 30 27 88 N13G31 29.77F WCI 20  
TRACY CLOUDY 29 29 100 N22 29.75S FOG WCI 15  
WINDOM HVY SNOW 30 18 59 N25G35 29.67S VSB 1/4 WCI 16  
WORTHINGTON HVY SNOW 28 27 96 N29G36 29.62F VSB 1/4 WCI 12  

 
 
IAZ001>003-012>014-020>022-031-032-NEZ013-014-SDZ071-221500-  
NORTHWEST IOWA  
 
CITY SKY/WX TMP DP RH WIND PRES REMARKS
 
CHEROKEE MIX PCPN 33 32 98 NE24G40 29.49F WCI 20  
DENISON MIX PCPN 34 34 100 NE24G38 29.43R WCI 21  
ESTHERVILLE FOG 30 30 100 N36G47 29.54F VSB 1/2 WCI 14  
LE MARS RAIN 32 30 93 N32G44 29.52F VSB 1/2 WCI 17  
ORANGE CITY LGT SNOW 30 30 100 N26G36 29.54S WCI 16  
SHELDON HVY RAIN 30 30 100 N35G46 29.54R VSB<1/4 WCI 14  
SIOUX CITY LGT SNOW 32 32 100 N29G35 29.54F FOG WCI 18  
SPENCER SNOW 32 32 100 NE43G53 29.52F VSB 1/2 WCI 15  
STORM LAKE LGT RAIN 32 32 100 NE32G48 29.46F WCI 17  

 
 
ABBREVIATIONS USED IN REMARKS  
TC - TEMPERATURE IN CELSIUS  
WCI - WIND CHILL INDEX  
HX - HEAT INDEX  
VSB - VISIBILITY  
 
 
 
CLICK HERE TO GO TO PREVIOUS BULLETINS.

The Nexlab SD Page
The Nexlab IA Page
The Nexlab MN Page
The Nexlab NE Page Main Text Page